[[{"header":{"parameterUnit":"m.s-1","parameterCategory":1,"la1":30.2991,"la2":30.254,"lo1":-89.0895,"lo2":-89.0444,"dy":0.0017,"dx":0.0017,"nx":28,"ny":28,"refTime":"2024-12-09T03:00:00:Z","depth":0,"parameterNumber":2,"parameterNumberName":"U-component_of_WINDS"},"data":[0,0,0,0,0,0,0,0,0,0,0,0,0,0,0,0,0,0,0,0,0,0,0,0,0,0,0,0,0,0,0,0,0,0,0,0,0,0,0,0,0,0,0,0,0,0,0,0,0,0,0,0,0,0,0,0,0,0,-4.0196,-4.0195,0,-4.0146,-4.0145,-4.0144,-4.0044,-4.0042,-4.004,-4.0038,-3.9989,-3.999,-3.999,0,0,0,0,0,0,0,0,0,0,0,0,0,-4.0208,-4.0209,-4.0196,-4.0195,-4.0195,-4.0146,-4.0145,-4.0144,-4.0045,-4.0042,-4.004,-4.0037,-3.9989,-3.999,-3.999,0,0,0,0,0,0,0,0,0,0,0,0,0,-4.0185,-4.0209,-4.0196,-4.0139,-4.0133,-4.0146,-4.0145,-4.0144,-4.0045,-4.0042,-4.0039,-4.0036,-3.9989,-3.999,-3.9991,-4.0055,0,0,-3.9993,-3.9993,0,0,0,0,0,0,0,0,-4.0187,-4.0185,-4.0148,-4.0143,-4.0136,-4.0098,-4.0131,-4.0115,-4.0046,-4.0079,-4.0038,-4.0035,-4.0028,-4.0025,-4.0023,-4.0053,-4.0051,-3.9993,-3.9994,-3.9994,-3.9994,0,0,0,0,0,0,0,-4.0188,-4.0186,-4.0176,-4.0147,-4.0141,-4.0117,-4.011,-4.0128,-4.0071,-4.0076,-4.0068,-4.0063,-4.0024,-4.0022,-4.0021,-4.005,-3.9993,-3.9994,-3.9994,-3.9995,-4.0131,-4.0134,0,0,0,0,0,0,-4.0198,-4.0188,-4.0178,-4.0174,-4.0155,-4.0119,-4.0112,-4.0113,-4.007,-4.0061,-4.0066,-4.0059,-4.0022,-4.002,-4.0019,-4.009,-3.9994,-3.9995,-3.9995,-4.0128,-4.0132,-4.0135,0,0,0,0,0,0,-4.0199,-4.0198,-4.018,-4.0179,-4.0175,-4.0122,-4.0125,-4.0114,-4.0111,-4.0063,-4.0053,-4.0074,-4.002,-4.0018,-4.0047,-4.0087,-3.9995,-3.9996,-4.0124,-4.0129,-4.0133,-4.0235,0,0,0,0,0,0,-4.0199,-4.0199,-4.0222,-4.0181,-4.0176,-4.0208,-4.0127,-4.0115,-4.0113,-4.0103,-4.0068,-4.0059,-4.0017,-4.0046,-4.0048,-4.0086,-3.9996,-4.012,-4.0126,-4.0132,-4.0227,-4.0242,-4.0255,0,0,0,0,0,-4.02,-4.0253,-4.0223,-4.0223,-4.0203,-4.021,-4.0207,-4.0157,-4.0117,-4.014,-4.0109,-4.006,-4.0084,-4.005,-4.0051,-4.0091,-4.0117,-4.0125,-4.0131,-4.0221,-4.0239,-4.0255,0,0,0,0,0,0,-4.03,-4.0246,-4.0213,-4.0254,-4.0237,-4.0193,-4.022,-4.0178,-4.0173,-4.0165,-4.0104,-4.0097,-4.0134,-4.0116,-4.0079,-4.0151,-4.0093,-4.01,-4.0161,-4.0178,-4.0191,-4.0193,-3.9997,0,0,0,0,0,-4.0328,-4.0337,-4.0289,-4.033,-4.0324,-4.0274,-4.0275,-4.0239,-4.0219,-4.0212,-4.0183,-4.0167,-4.017,-4.0173,-4.0174,-4.0226,-4.0216,-4.0254,-4.0268,-4.0279,-4.0285,-4.031,-4.0326,-4.0158,-4.0158,-4.0158,0,0,-4.0383,-4.0355,-4.0364,-4.035,-4.0332,-4.0344,-4.0269,-4.0284,-4.0292,-4.0214,-4.0238,-4.0218,-4.0196,-4.0236,-4.0253,-4.0222,-4.0331,-4.0288,-4.0298,-4.0297,-4.0319,-4.0335,-4.0349,-4.0163,-4.0162,-4.0161,0,0,-4.0489,-4.0469,-4.05,-4.0485,-4.0459,-4.0427,-4.0435,-4.0397,-4.038,-4.0404,-4.0346,-4.0356,-4.0363,-4.0349,-4.0344,-4.0448,-4.0402,-4.045,-4.052,-4.0545,-4.0559,-4.057,-4.0605,-4.0618,-4.0457,-4.0457,-4.0457,0,-4.056,-4.0574,-4.0522,-4.054,-4.0535,-4.0467,-4.0498,-4.0486,-4.0463,-4.0462,-4.0428,-4.0436,-4.0417,-4.0452,-4.0478,-4.0476,-4.0483,-4.0451,-4.0561,-4.0572,-4.0582,-4.0614,-4.0628,-4.0463,-4.0462,-4.0462,-4.0461,0,-4.0663,-4.0674,-4.0702,-4.068,-4.068,-4.0705,-4.0657,-4.0663,-4.0628,-4.0599,-4.0625,-4.06,-4.0593,-4.06,-4.0566,-4.0631,-4.0613,-4.0572,-4.0511,-4.0604,-4.0633,-4.0646,-4.0471,-4.0469,-4.0467,-4.0466,0,0,-4.0826,-4.0777,-4.0788,-4.0777,-4.0746,-4.0753,-4.0777,-4.077,-4.0776,-4.0764,-4.078,-4.079,-4.0751,-4.0745,-4.0709,-4.0732,-4.0814,-4.0687,-4.0686,-4.0709,-4.0882,-4.0911,-4.0926,-4.0785,-4.0787,-4.0789,-4.0883,0,-4.0922,-4.0956,-4.0911,-4.0956,-4.0965,-4.0901,-4.0921,-4.0905,-4.0879,-4.0884,-4.0857,-4.0863,-4.0813,-4.0809,-4.0829,-4.0799,-4.0847,-4.0793,-4.0799,-4.08,-4.0802,-4.0942,-4.0972,-4.1061,-4.0894,-4.0896,-4.0898,0,-4.1038,-4.103,-4.1075,-4.1041,-4.1043,-4.1062,-4.1052,-4.1059,-4.1039,-4.1019,-4.1014,-4.0971,-4.0992,-4.0937,-4.0964,-4.0928,-4.0929,-4.0916,-4.0918,-4.0914,-4.0852,-4.0938,-4.1089,-4.1101,-4.0916,-4.0914,-4.0913,0,-4.1149,-4.1151,-4.1177,-4.1171,-4.1133,-4.1147,-4.1132,-4.111,-4.1109,-4.1102,-4.1101,-4.1098,-4.1095,-4.1093,-4.1051,-4.1015,-4.1084,-4.1025,-4.1067,-4.1068,-4.108,-4.1079,-4.123,-4.1088,-4.1088,-4.1087,-4.1087,0,-4.1258,-4.1288,-4.1226,-4.1242,-4.1274,-4.1224,-4.1257,-4.1235,-4.1217,-4.1228,-4.1175,-4.1187,-4.1133,-4.114,-4.1108,-4.1135,-4.1135,-4.1119,-4.1109,-4.1121,-4.1123,-4.1118,-4.1109,-4.1091,-4.109,-4.1089,-4.1089,0,-4.1385,-4.1346,-4.137,-4.1333,-4.1325,-4.1349,-4.1317,-4.1331,-4.1304,-4.1319,-4.132,-4.1277,-4.1282,-4.1242,-4.124,-4.1219,-4.1259,-4.1241,-4.1265,-4.1258,-4.1301,-4.1296,-4.145,-4.1467,-4.1318,-4.1319,-4.1321,0,-4.1456,-4.1476,-4.1442,-4.1445,-4.1433,-4.144,-4.1439,-4.1391,-4.1392,-4.1373,-4.139,-4.1391,-4.1388,-4.14,-4.1369,-4.1367,-4.1346,-4.1401,-4.1345,-4.1357,-4.1343,-4.1341,-4.1342,-4.1411,-4.1413,-4.1414,-4.1415,0,-4.1584,-4.1564,-4.1563,-4.1558,-4.1558,-4.1551,-4.1541,-4.1547,-4.1496,-4.15,-4.1504,-4.1503,-4.1501,-4.1502,-4.1495,-4.1481,-4.1439,-4.1434,-4.1443,-4.1453,-4.1465,-4.1456,-4.1293,-4.1429,-4.1428,-4.1427,-4.1426,-4.1426,-4.1682,-4.1697,-4.1675,-4.1677,-4.1665,-4.1657,-4.1668,-4.1642,-4.1645,-4.1639,-4.1612,-4.1621,-4.1603,-4.1589,-4.1578,-4.1585,-4.1559,-4.1573,-4.1575,-4.1578,-4.1585,-4.1468,-4.1584,-4.1584,-4.1584,-4.1583,-4.1583,0,-4.1804,-4.1787,-4.179,-4.1777,-4.178,-4.1742,-4.173,-4.1734,-4.1742,-4.1729,-4.1728,-4.1733,-4.1735,-4.1705,-4.1703,-4.1715,-4.1696,-4.1715,-4.1712,-4.1709,-4.161,-4.1601,-4.1731,-4.1731,-4.173,-4.173,-4.173,-4.173,-4.1868,-4.1891,-4.1869,-4.1887,-4.187,-4.1878,-4.1873,-4.1866,-4.1855,-4.1863,-4.1864,-4.1845,-4.1825,-4.1821,-4.1821,-4.1813,-4.1813,-4.1839,-4.1823,-4.173,-4.1716,-4.1702,-4.1693,-4.184,-4.184,-4.1921,-4.1922,-4.1922]},{"header":{"parameterUnit":"m.s-1","parameterCategory":1,"la1":30.2991,"la2":30.254,"lo1":-89.0895,"lo2":-89.0444,"dy":0.0017,"dx":0.0017,"nx":28,"ny":28,"refTime":"2024-12-09T03:00:00:Z","depth":0,"parameterNumber":3,"parameterNumberName":"V-component_of_WINDS"},"data":[0,0,0,0,0,0,0,0,0,0,0,0,0,0,0,0,0,0,0,0,0,0,0,0,0,0,0,0,0,0,0,0,0,0,0,0,0,0,0,0,0,0,0,0,0,0,0,0,0,0,0,0,0,0,0,0,0,0,1.5828,1.5828,0,1.5839,1.5839,1.5839,1.5872,1.5873,1.5874,1.5874,1.5881,1.5881,1.588,0,0,0,0,0,0,0,0,0,0,0,0,0,1.5832,1.5831,1.5828,1.5828,1.5828,1.5839,1.5839,1.5839,1.5872,1.5873,1.5874,1.5875,1.5881,1.5881,1.588,0,0,0,0,0,0,0,0,0,0,0,0,0,1.5835,1.5831,1.5827,1.5846,1.5847,1.5839,1.5839,1.5839,1.5872,1.5873,1.5874,1.5875,1.5882,1.5881,1.588,1.5854,0,0,1.5878,1.5878,0,0,0,0,0,0,0,0,1.5835,1.5835,1.5843,1.5844,1.5846,1.5856,1.5843,1.5844,1.5872,1.5862,1.5874,1.5876,1.5872,1.5872,1.5871,1.5854,1.5854,1.5878,1.5877,1.5877,1.5877,0,0,0,0,0,0,0,1.5834,1.5834,1.5832,1.5843,1.5845,1.5853,1.5854,1.5844,1.586,1.5863,1.5866,1.5867,1.5873,1.5872,1.5872,1.5854,1.5878,1.5877,1.5877,1.5876,1.5819,1.5818,0,0,0,0,0,0,1.5832,1.5834,1.5832,1.5832,1.5843,1.5852,1.5853,1.5851,1.5861,1.5863,1.5866,1.5869,1.5873,1.5873,1.5872,1.5844,1.5877,1.5876,1.5876,1.582,1.5819,1.5818,0,0,0,0,0,0,1.5832,1.5832,1.5831,1.5834,1.5835,1.585,1.5848,1.5851,1.585,1.5863,1.5866,1.5862,1.5874,1.5873,1.5859,1.5845,1.5876,1.5875,1.5822,1.582,1.5819,1.5786,0,0,0,0,0,0,1.5832,1.5831,1.5822,1.5834,1.5834,1.5819,1.5847,1.585,1.585,1.5853,1.586,1.5862,1.5874,1.586,1.5858,1.5844,1.5875,1.5823,1.5821,1.5819,1.5789,1.5784,1.5779,0,0,0,0,0,1.5832,1.581,1.5821,1.5821,1.5823,1.5818,1.5818,1.5834,1.5848,1.5839,1.5847,1.5862,1.5847,1.5858,1.5857,1.5842,1.5824,1.5822,1.5819,1.5791,1.5785,1.578,0,0,0,0,0,0,1.5794,1.5812,1.5824,1.5806,1.581,1.5823,1.5812,1.5826,1.5825,1.5828,1.5846,1.5847,1.5831,1.5835,1.5848,1.5819,1.5838,1.5835,1.5817,1.5811,1.5807,1.5806,1.5874,0,0,0,0,0,1.5784,1.5779,1.5795,1.5777,1.5779,1.5795,1.5793,1.5805,1.581,1.5811,1.5819,1.5822,1.5818,1.5814,1.5811,1.5789,1.5792,1.5779,1.5774,1.577,1.5768,1.5759,1.5754,1.581,1.581,1.581,0,0,1.5761,1.5771,1.5767,1.577,1.5775,1.5769,1.5796,1.5788,1.5785,1.581,1.5798,1.5804,1.5808,1.5791,1.5784,1.5794,1.5753,1.5767,1.5764,1.5764,1.5756,1.5751,1.5746,1.5808,1.5809,1.5809,0,0,1.5719,1.5726,1.5713,1.5719,1.5727,1.5738,1.5735,1.5747,1.5752,1.5742,1.5761,1.5756,1.5748,1.5752,1.5752,1.5716,1.573,1.5714,1.569,1.5681,1.5677,1.5673,1.5662,1.5657,1.5711,1.5711,1.5711,0,1.5691,1.5685,1.5704,1.5697,1.5698,1.5724,1.5711,1.5715,1.572,1.5721,1.5732,1.5726,1.573,1.5716,1.5707,1.5706,1.5704,1.5713,1.5676,1.5672,1.5669,1.5659,1.5654,1.5709,1.5709,1.571,1.571,0,1.565,1.5646,1.5635,1.5643,1.5643,1.5633,1.5651,1.5648,1.5661,1.5671,1.5661,1.5668,1.5668,1.5665,1.5676,1.5653,1.5659,1.5673,1.5693,1.5662,1.5652,1.5648,1.5706,1.5707,1.5708,1.5708,0,0,1.5582,1.5605,1.56,1.5606,1.5618,1.5615,1.5606,1.5609,1.5607,1.5611,1.5605,1.56,1.5614,1.5615,1.5626,1.5619,1.5592,1.5634,1.5634,1.5627,1.5569,1.5559,1.5554,1.5602,1.5601,1.56,1.5569,0,1.5544,1.5533,1.5552,1.5536,1.5533,1.5559,1.5552,1.5558,1.5568,1.5567,1.5577,1.5574,1.5592,1.5593,1.5586,1.5596,1.5581,1.5599,1.5596,1.5596,1.5596,1.5549,1.5538,1.5508,1.5565,1.5565,1.5564,0,1.5498,1.5503,1.5487,1.5504,1.5504,1.5497,1.5503,1.5501,1.551,1.5517,1.552,1.5536,1.5529,1.5548,1.554,1.5552,1.5552,1.5557,1.5556,1.5557,1.5579,1.555,1.5499,1.5495,1.5558,1.5559,1.5559,0,1.5452,1.5455,1.5447,1.545,1.5469,1.5464,1.5471,1.5482,1.5483,1.5487,1.5488,1.5491,1.5492,1.5494,1.551,1.5522,1.55,1.552,1.5507,1.5506,1.5501,1.5501,1.5451,1.5499,1.5499,1.5499,1.5499,0,1.5408,1.5398,1.5427,1.5422,1.5413,1.5434,1.5424,1.5433,1.5443,1.544,1.5461,1.5458,1.5479,1.5478,1.549,1.5483,1.5482,1.5489,1.5492,1.5488,1.5487,1.5488,1.5491,1.5498,1.5498,1.5499,1.5499,0,1.5356,1.5375,1.5368,1.5388,1.5392,1.5384,1.5401,1.5397,1.5409,1.5406,1.5406,1.5425,1.5426,1.5442,1.5445,1.5453,1.5441,1.5448,1.5439,1.5441,1.5428,1.5429,1.5377,1.5372,1.5422,1.5422,1.5422,0,1.5327,1.532,1.534,1.5341,1.5348,1.5349,1.5352,1.5373,1.5375,1.5386,1.5381,1.5384,1.5388,1.5388,1.5401,1.5404,1.5412,1.5393,1.5412,1.5409,1.5413,1.5414,1.5414,1.5389,1.5389,1.5388,1.5388,0,1.5274,1.5285,1.5289,1.5297,1.53,1.5306,1.5314,1.5313,1.5337,1.5338,1.534,1.5343,1.5349,1.5351,1.5358,1.5364,1.538,1.5382,1.5379,1.5375,1.5371,1.5375,1.5429,1.5383,1.5383,1.5384,1.5384,1.5384,1.5234,1.5231,1.5245,1.5249,1.5258,1.5266,1.5264,1.5278,1.5281,1.5288,1.5301,1.5302,1.5313,1.5323,1.5329,1.533,1.5339,1.5335,1.5334,1.5333,1.5331,1.537,1.5331,1.5331,1.5331,1.5331,1.5331,0,1.5184,1.5195,1.5199,1.5211,1.5215,1.5232,1.5242,1.5244,1.5245,1.5255,1.5259,1.5263,1.5267,1.5282,1.5287,1.5285,1.5293,1.5286,1.5287,1.5288,1.5321,1.5324,1.528,1.528,1.528,1.528,1.528,1.528,1.5159,1.5155,1.5167,1.5169,1.518,1.5183,1.5188,1.5195,1.5204,1.5208,1.5212,1.5223,1.5235,1.5242,1.5246,1.5251,1.5252,1.5243,1.525,1.5281,1.5286,1.529,1.5293,1.5243,1.5243,1.5217,1.5217,1.5217]}]]